Weather History for KVTN - June, 2013

Change the Weather History Date:

Thursday, June 20, 2013

  Actual Average Record
Temperature  
Mean Temperature 75 °F 69 °F  
Max Temperature 84 °F 83 °F 107 °F (1974)
Min Temperature 66 °F 55 °F 35 °F (1972)
Degree Days  
Heating Degree Days 0 1  
Month to date heating degree days 54 51  
Since 1 June heating degree days 54 51  
Since 1 July heating degree days 6942 6993  
Cooling Degree Days 10 5  
Month to date cooling degree days 59 68  
Year to date cooling degree days 98 102  
Since 1 June cooling degree days 59 68  
Growing Degree Days 26 (Base 50)    
Moisture  
Dew Point 63 °F    
Average Humidity 68    
Maximum Humidity 84    
Minimum Humidity 51    
Precipitation  
Precipitation 0.00 in 0.11 in 1.17 in (1904)
Month to date precipitation 0.71 2.42  
Year to date precipitation 10.11 9.58  
Snow  
Snow 0.00 in 0.00 in 0.00 in ()
Month to date snowfall 0.0 0.0  
Since 1 June snowfall 0.0 0.0  
Since 1 July snowfall 54.0 33.3  
Snow Depth 0.00 in    
Sea Level Pressure  
Sea Level Pressure 29.74 in    
Wind  
Wind Speed 8 mph (SSE)    
Max Wind Speed 24 mph    
Max Gust Speed 30 mph    
Visibility 10 miles    
Events      
T = Trace of Precipitation, MM = Missing Value Source: NWS Daily Summary

Daily Weather History Graph

Daily Weather History Graph

Search for Another Location

Airport or City:

Trip Planner

Search our weather history database for the weather conditions in past years. The results will help you decide how hot, cold, wet, or windy it might be!

Date:

Astronomy

Jun. 20, 2013 Rise Set
Actual Time 6:03 AM CDT 9:24 PM CDT
Civil Twilight 5:28 AM CDT 9:59 PM CDT
Nautical Twilight 4:42 AM CDT 10:45 PM CDT
Astronomical Twilight 3:45 AM CDT 11:41 PM CDT
Moon 6:26 PM CDT (6/20) 3:34 AM CDT (6/20)
Length of Visible Light 16h 31m
Length of Day
15h 20m
Waxing Gibbous, 89% of the Moon is Illuminated
Jun 20
Waxing Gibbous
Jun 23
Full
Jun 29
Last Quarter
Jul 8
New
Jul 15
First Quarter

Hourly Weather History & Observations

Time (CDT) Temp. Heat Index Dew Point Humidity Pressure Visibility Wind Dir Wind Speed Gust Speed Precip Events Conditions
12:52 AM 73.0 °F - 61.0 °F 66% 29.71 in 10.0 mi SSE 17.3 mph 27.6 mph N/A   Clear
1:52 AM 72.0 °F - 61.0 °F 68% 29.70 in 10.0 mi SSE 18.4 mph 25.3 mph N/A   Clear
2:52 AM 71.1 °F - 61.0 °F 70% 29.69 in 10.0 mi South 19.6 mph 26.5 mph N/A   Clear
3:52 AM 70.0 °F - 61.0 °F 73% 29.68 in 10.0 mi South 15.0 mph 25.3 mph N/A   Clear
4:52 AM 71.1 °F - 61.0 °F 70% 29.75 in 10.0 mi Variable 4.6 mph - N/A   Mostly Cloudy
5:52 AM 70.0 °F - 62.1 °F 76% 29.74 in 10.0 mi East 3.5 mph - N/A   Mostly Cloudy
6:52 AM 70.0 °F - 62.1 °F 76% 29.73 in 10.0 mi SE 11.5 mph - N/A   Mostly Cloudy
7:52 AM 72.0 °F - 63.0 °F 73% 29.70 in 10.0 mi SSE 15.0 mph - N/A   Scattered Clouds
8:50 AM 73.4 °F - 62.6 °F 69% 29.79 in 10.0 mi SSE 15.0 mph - N/A   Overcast
8:52 AM 73.0 °F - 63.0 °F 71% 29.72 in 10.0 mi SSE 18.4 mph - N/A   Overcast
9:52 AM 73.9 °F - 64.0 °F 71% 29.72 in 10.0 mi SSE 15.0 mph 21.9 mph N/A   Overcast
10:52 AM 75.0 °F - 64.0 °F 69% 29.75 in 10.0 mi SSW 12.7 mph - N/A   Overcast
11:39 AM 75.2 °F - 64.4 °F 69% 29.82 in 10.0 mi SSW 11.5 mph - N/A   Overcast
11:52 AM 75.0 °F - 64.0 °F 69% 29.76 in 10.0 mi SSW 9.2 mph - N/A   Overcast
12:52 PM 75.9 °F - 64.9 °F 69% 29.77 in 10.0 mi SW 9.2 mph - N/A   Overcast
1:52 PM 77.0 °F - 64.0 °F 64% 29.76 in 10.0 mi South 3.5 mph - N/A   Overcast
2:52 PM 80.1 °F 81.7 °F 64.0 °F 58% 29.75 in 10.0 mi NW 3.5 mph - N/A   Overcast
3:52 PM 80.1 °F 81.7 °F 64.0 °F 58% 29.75 in 10.0 mi South 4.6 mph - N/A   Overcast
4:52 PM 82.0 °F 83.8 °F 64.9 °F 56% 29.74 in 10.0 mi East 6.9 mph - N/A   Overcast
5:52 PM 82.0 °F 83.8 °F 64.9 °F 56% 29.74 in 10.0 mi SE 5.8 mph - N/A   Overcast
6:52 PM 84.0 °F 85.4 °F 64.0 °F 51% 29.74 in 10.0 mi South 6.9 mph - N/A   Partly Cloudy
7:52 PM 82.9 °F 84.4 °F 64.0 °F 53% 29.75 in 10.0 mi SSE 5.8 mph - N/A   Overcast
8:52 PM 81.0 °F 83.0 °F 66.0 °F 60% 29.75 in 10.0 mi Calm Calm - N/A   Scattered Clouds
9:52 PM 77.0 °F - 66.0 °F 69% 29.76 in 10.0 mi Calm Calm - N/A   Clear
10:52 PM 72.0 °F - 64.9 °F 78% 29.78 in 10.0 mi NE 3.5 mph - N/A   Clear
11:52 PM 69.1 °F - 64.9 °F 87% 29.79 in 9.0 mi Calm Calm - N/A   Clear